Location: Bastogne Gables
(35.1554°N, 78.9900°W)
Time: 21:38:07
(UTC+00:00)

Cosmos 2369 - Pass Details

Date: 29 October 2020
Orbit: 840 x 854 km, 71.0° (Epoch: 26 November)

Event Time Altitude Azimuth Distance (km) Brightness Sun altitude
Rises 23:28:45 0° 198° (SSW) 3,407 7.2 -13.8°
Reaches altitude 10° 23:31:12 10° 198° (SSW) 2,474 6.5 -14.3°
Maximum altitude 23:36:54 86° 109° (ESE) 858 3.7 -15.4°
Drops below altitude 10° 23:42:37 10° 22° (NNE) 2,481 5.9 -16.6°
Sets 23:45:04 0° 22° (NNE) 3,418 6.6 -17.1°
